Weather History for Buckland, AK

Change the Weather History Date:

Tuesday, October 9, 2012

  Actual Average (PASK) Record (PASK)
Temperature  
Mean Temperature 28 °F -  
Max Temperature 37 °F 29 °F 46 °F (2006)
Min Temperature 19 °F 21 °F 8 °F (1996)
Degree Days  
Heating Degree Days 37    
Moisture  
Dew Point 18 °F    
Average Humidity 76    
Maximum Humidity 93    
Minimum Humidity 48    
Precipitation  
Precipitation 0.00 in - - ()
Sea Level Pressure  
Sea Level Pressure 30.55 in    
Wind  
Wind Speed 5 mph (NNW)    
Max Wind Speed 9 mph    
Max Gust Speed -    
Visibility 10 miles    
Events      
Averages and records for this station are not official NWS values.
T = Trace of Precipitation, MM = Missing Value Source: NWS Daily Summary

Daily Weather History Graph

Daily Weather History Graph

Search for Another Location

Airport:

Trip Planner

Search our weather history database for the weather conditions in past years. The results will help you decide how hot, cold, wet, or windy it might be!

Date:

Astronomy

Oct. 09, 2012 Rise Set
Actual Time 9:23 AM AKDT 7:38 PM AKDT
Civil Twilight 8:31 AM AKDT 8:29 PM AKDT
Nautical Twilight 7:32 AM AKDT 9:28 PM AKDT
Astronomical Twilight 6:30 AM AKDT 10:30 PM AKDT
Moon 12:48 AM AKDT (10/9) 6:14 PM AKDT (10/9)
Length of Visible Light 11h 57m
Length of Day
10h 14m
Waning Crescent, 35% of the Moon is Illuminated
Oct 9
Waning Crescent
Oct 15
New
Oct 21
First Quarter
Oct 29
Full
Nov 6
Last Quarter

Hourly Weather History & Observations

Time (AKDT) Temp. Windchill Dew Point Humidity Pressure Visibility Wind Dir Wind Speed Gust Speed Precip Events Conditions
12:16 AM 28.4 °F 22.2 °F 21.2 °F 74% 30.55 in 10.0 mi North 5.8 mph - N/A   Clear
12:36 AM 28.4 °F 21.2 °F 19.4 °F 69% 30.55 in 10.0 mi North 6.9 mph - N/A   Clear
12:56 AM 28.4 °F 21.2 °F 21.2 °F 74% 30.55 in 10.0 mi NNW 6.9 mph - N/A   Clear
1:16 AM 26.6 °F 19.1 °F 21.2 °F 80% 30.55 in 10.0 mi NW 6.9 mph - N/A   Clear
1:36 AM 24.8 °F 15.3 °F 19.4 °F 80% 30.55 in 10.0 mi NW 9.2 mph - N/A   Clear
1:56 AM 26.6 °F 20.0 °F 19.4 °F 74% 30.55 in 10.0 mi NNW 5.8 mph - N/A   Clear
2:16 AM 24.8 °F 16.1 °F 19.4 °F 80% 30.55 in 10.0 mi North 8.1 mph - N/A   Clear
2:36 AM 24.8 °F 15.3 °F 19.4 °F 80% 30.55 in 10.0 mi NNW 9.2 mph - N/A   Clear
2:56 AM 24.8 °F 19.1 °F 19.4 °F 80% 30.55 in 10.0 mi NW 4.6 mph - N/A   Clear
3:16 AM 24.8 °F 16.1 °F 19.4 °F 80% 30.55 in 10.0 mi NNW 8.1 mph - N/A   Clear
3:36 AM 24.8 °F 15.3 °F 19.4 °F 80% 30.55 in 10.0 mi NNW 9.2 mph - N/A   Clear
3:56 AM 24.8 °F 16.1 °F 19.4 °F 80% 30.55 in 10.0 mi NW 8.1 mph - N/A   Clear
4:16 AM 26.6 °F 18.2 °F 19.4 °F 74% 30.55 in 10.0 mi NNW 8.1 mph - N/A   Clear
4:36 AM 24.8 °F 17.9 °F 19.4 °F 80% 30.55 in 10.0 mi NW 5.8 mph - N/A   Clear
4:56 AM 23.0 °F 17.0 °F 19.4 °F 86% 30.55 in 10.0 mi WNW 4.6 mph - N/A   Clear
5:16 AM 23.0 °F 14.7 °F 19.4 °F 86% 30.55 in 10.0 mi WNW 6.9 mph - N/A   Clear
5:36 AM 21.2 °F 12.6 °F 17.6 °F 86% 30.55 in 10.0 mi NW 6.9 mph - N/A   Clear
5:56 AM 21.2 °F - 17.6 °F 86% 30.55 in 10.0 mi Calm Calm - N/A   Clear
6:16 AM 21.2 °F 16.4 °F 19.4 °F 93% 30.56 in 10.0 mi WNW 3.5 mph - N/A   Clear
6:36 AM 21.2 °F 14.9 °F 19.4 °F 93% 30.56 in 10.0 mi WNW 4.6 mph - N/A   Clear
6:56 AM 21.2 °F 13.6 °F 17.6 °F 86% 30.56 in 10.0 mi WNW 5.8 mph - N/A   Clear
7:16 AM 21.2 °F 13.6 °F 19.4 °F 93% 30.56 in 10.0 mi WNW 5.8 mph - N/A   Clear
7:36 AM 21.2 °F 14.9 °F 17.6 °F 86% 30.56 in 10.0 mi NW 4.6 mph - N/A   Clear
7:56 AM 21.2 °F 16.4 °F 15.8 °F 80% 30.56 in 10.0 mi North 3.5 mph - N/A   Clear
8:16 AM 21.2 °F 16.4 °F 17.6 °F 86% 30.56 in 10.0 mi NW 3.5 mph - N/A   Clear
8:36 AM 19.4 °F - 17.6 °F 93% 30.56 in 10.0 mi Calm Calm - N/A   Clear
8:56 AM 21.2 °F 14.9 °F 17.6 °F 86% 30.56 in 10.0 mi WNW 4.6 mph - N/A   Clear
9:16 AM 21.2 °F 16.4 °F 15.8 °F 80% 30.57 in 10.0 mi North 3.5 mph - N/A   Clear
9:36 AM 19.4 °F - 15.8 °F 86% 30.57 in 10.0 mi Calm Calm - N/A   Clear
9:56 AM 19.4 °F - 15.8 °F 86% 30.57 in 10.0 mi Calm Calm - N/A   Clear
10:16 AM 19.4 °F 14.3 °F 17.6 °F 93% 30.58 in 10.0 mi SSE 3.5 mph - N/A   Clear
10:36 AM 19.4 °F 12.8 °F 17.6 °F 93% 30.58 in 10.0 mi South 4.6 mph - N/A   Clear
10:56 AM 19.4 °F 12.8 °F 17.6 °F 93% 30.58 in 10.0 mi SSE 4.6 mph - N/A   Clear
11:16 AM 21.2 °F - 17.6 °F 86% 30.58 in 10.0 mi Calm Calm - N/A   Clear
11:36 AM 23.0 °F - 19.4 °F 86% 30.58 in 10.0 mi Calm Calm - N/A   Clear
11:56 AM 24.8 °F - 19.4 °F 80% 30.58 in 10.0 mi Calm Calm - N/A   Clear
12:16 PM 26.6 °F - 21.2 °F 80% 30.58 in 10.0 mi Calm Calm - N/A   Clear
12:36 PM 26.6 °F - 21.2 °F 80% 30.58 in 10.0 mi Calm Calm - N/A   Clear
4:36 PM 35.6 °F - 19.4 °F 52% 30.55 in 10.0 mi Calm Calm - N/A   Clear
4:56 PM 35.6 °F 32.8 °F 19.4 °F 52% 30.54 in 10.0 mi WNW 3.5 mph - N/A   Clear
5:16 PM 37.4 °F - 19.4 °F 48% 30.54 in 10.0 mi Calm Calm - N/A   Clear
5:36 PM 35.6 °F 28.6 °F 19.4 °F 52% 30.54 in 10.0 mi NE 9.2 mph - N/A   Clear
5:56 PM 35.6 °F 28.6 °F 19.4 °F 52% 30.54 in 10.0 mi NE 9.2 mph - N/A   Clear
6:16 PM 35.6 °F 29.9 °F 19.4 °F 52% 30.54 in 10.0 mi ENE 6.9 mph - N/A   Clear
6:36 PM 33.8 °F 27.0 °F 19.4 °F 56% 30.53 in 10.0 mi NE 8.1 mph - N/A   Clear
6:56 PM 33.8 °F 27.7 °F 19.4 °F 56% 30.53 in 10.0 mi NE 6.9 mph - N/A   Clear
7:36 PM 30.2 °F 22.6 °F 17.6 °F 60% 30.53 in 10.0 mi ENE 8.1 mph - N/A   Clear
7:56 PM 30.2 °F 22.6 °F 17.6 °F 60% 30.53 in 10.0 mi ENE 8.1 mph - N/A   Clear
8:16 PM 30.2 °F 21.9 °F 17.6 °F 60% 30.53 in 10.0 mi ENE 9.2 mph - N/A   Clear
8:36 PM 28.4 °F - 15.8 °F 59% 30.53 in 10.0 mi Calm Calm - N/A   Clear
8:56 PM 28.4 °F 23.3 °F 15.8 °F 59% 30.53 in 10.0 mi North 4.6 mph - N/A   Clear
9:16 PM 28.4 °F - 15.8 °F 59% 30.54 in 10.0 mi Calm Calm - N/A   Clear
9:36 PM 24.8 °F 19.1 °F 15.8 °F 69% 30.54 in 10.0 mi West 4.6 mph - N/A   Clear
9:56 PM 21.2 °F 14.9 °F 14.0 °F 74% 30.54 in 10.0 mi WSW 4.6 mph - N/A   Clear
10:16 PM 23.0 °F 18.4 °F 17.6 °F 80% 30.54 in 10.0 mi WSW 3.5 mph - N/A   Clear
10:36 PM 24.8 °F 20.5 °F 17.6 °F 74% 30.54 in 10.0 mi WSW 3.5 mph - N/A   Clear
10:56 PM 24.8 °F 19.1 °F 15.8 °F 69% 30.54 in 10.0 mi WSW 4.6 mph - N/A   Clear
11:16 PM 21.2 °F 14.9 °F 15.8 °F 80% 30.54 in 10.0 mi SSE 4.6 mph - N/A   Clear
11:36 PM 19.4 °F 14.3 °F 17.6 °F 93% 30.54 in 10.0 mi SE 3.5 mph - N/A   Clear
11:56 PM 19.4 °F - 17.6 °F 93% 30.54 in 10.0 mi Calm Calm - N/A   Clear